contact:dominique.lefevre@mio.osupytheas.fr, maurice.libes@osupytheas.fr, didier.mallarino@osupytheas.fr
Project:EMSO http://www.emso-fr.org/EMSO-France
Depth: 2436.0 m
Title:EMSO Ligure Ouest : Data MII capteur CSTAR
DateTime,Latitude,Longitude,Instrument_Serial,Reference_Counts,Signal_Counts,Corrected_Signal_raw_counts,Calculated_Beam_c_inverse_meters,Internal_thermistor_counts
DateTime,Latitude,Longitude,Instrument_Serial,Reference_Counts,Signal_Counts,Corrected_Signal_raw_counts,Calculated_Beam_c_inverse_meters,Internal_thermistor_counts
2023-02-19T00:00:12,42.805,6.029,CST-1368DR,4379,4879,11838,01.108,551
2023-02-19T00:03:13,42.805,6.029,CST-1368DR,4379,4878,11835,01.109,551
2023-02-19T00:06:15,42.805,6.029,CST-1368DR,4379,4875,11828,01.111,551
2023-02-19T00:09:17,42.805,6.029,CST-1368DR,4379,4878,11836,01.109,551
2023-02-19T00:12:18,42.805,6.029,CST-1368DR,4379,4878,11836,01.109,551
2023-02-19T00:15:20,42.805,6.029,CST-1368DR,4379,4874,11825,01.112,551
2023-02-19T00:18:21,42.805,6.029,CST-1368DR,4379,4879,11837,01.108,551
2023-02-19T00:21:23,42.805,6.029,CST-1368DR,4379,4878,11835,01.109,551
2023-02-19T00:24:24,42.805,6.029,CST-1368DR,4379,4875,11829,01.111,551
2023-02-19T00:27:26,42.805,6.029,CST-1368DR,4379,4874,11826,01.112,551
2023-02-19T00:30:28,42.805,6.029,CST-1368DR,4379,4875,11828,01.111,551
2023-02-19T00:33:29,42.805,6.029,CST-1368DR,4379,4878,11834,01.109,551
2023-02-19T00:36:31,42.805,6.029,CST-1368DR,4379,4876,11829,01.111,551
2023-02-19T00:39:32,42.805,6.029,CST-1368DR,4379,4878,11835,01.109,551
2023-02-19T00:42:34,42.805,6.029,CST-1368DR,4379,4878,11835,01.109,551
2023-02-19T00:45:36,42.805,6.029,CST-1368DR,4379,4874,11825,01.112,551
2023-02-19T00:48:37,42.805,6.029,CST-1368DR,4379,4870,11816,01.115,551
2023-02-19T00:51:39,42.805,6.029,CST-1368DR,4379,4869,11812,01.117,551
2023-02-19T00:54:40,42.805,6.029,CST-1368DR,4379,4873,11822,01.113,551
2023-02-19T00:57:42,42.805,6.029,CST-1368DR,4379,4872,11822,01.113,551
2023-02-19T01:00:43,42.805,6.029,CST-1368DR,4379,4872,11820,01.114,551
2023-02-19T01:03:45,42.805,6.029,CST-1368DR,4379,4872,11822,01.113,551
2023-02-19T01:06:47,42.805,6.029,CST-1368DR,4379,4857,11783,01.127,551
2023-02-19T01:09:48,42.805,6.029,CST-1368DR,4379,4868,11811,01.117,551
2023-02-19T01:12:50,42.805,6.029,CST-1368DR,4379,4868,11811,01.117,551
2023-02-19T01:15:51,42.805,6.029,CST-1368DR,4379,4859,11789,01.125,551
2023-02-19T01:18:53,42.805,6.029,CST-1368DR,4379,4858,11788,01.125,551
2023-02-19T01:21:54,42.805,6.029,CST-1368DR,4379,4858,11788,01.125,551
2023-02-19T01:24:56,42.805,6.029,CST-1368DR,4379,4857,11785,01.126,551
2023-02-19T01:27:58,42.805,6.029,CST-1368DR,4379,4860,11791,01.124,551
2023-02-19T01:30:59,42.805,6.029,CST-1368DR,4379,4856,11783,01.127,551
2023-02-19T01:34:01,42.805,6.029,CST-1368DR,4379,4859,11789,01.125,551
2023-02-19T01:37:02,42.805,6.029,CST-1368DR,4379,4859,11788,01.125,551
2023-02-19T01:40:04,42.805,6.029,CST-1368DR,4379,4857,11785,01.126,551
2023-02-19T01:43:06,42.805,6.029,CST-1368DR,4379,4856,11782,01.127,551
2023-02-19T01:46:07,42.805,6.029,CST-1368DR,4379,4857,11783,01.127,551
2023-02-19T01:49:09,42.805,6.029,CST-1368DR,4379,4856,11782,01.127,551
2023-02-19T01:52:10,42.805,6.029,CST-1368DR,4379,4857,11785,01.126,551
2023-02-19T01:55:12,42.805,6.029,CST-1368DR,4379,4855,11780,01.128,551
2023-02-19T01:58:13,42.805,6.029,CST-1368DR,4379,4862,11797,01.122,551
2023-02-19T02:01:15,42.805,6.029,CST-1368DR,4379,4860,11792,01.123,551
2023-02-19T02:04:17,42.805,6.029,CST-1368DR,4379,4859,11788,01.125,551
2023-02-19T02:07:18,42.805,6.029,CST-1368DR,4379,4858,11786,01.126,551
2023-02-19T02:10:20,42.805,6.029,CST-1368DR,4379,4857,11785,01.126,551
2023-02-19T02:13:21,42.805,6.029,CST-1368DR,4379,4857,11785,01.126,551
2023-02-19T02:16:23,42.805,6.029,CST-1368DR,4379,4856,11781,01.127,551
2023-02-19T02:19:24,42.805,6.029,CST-1368DR,4379,4857,11785,01.126,551
2023-02-19T02:22:26,42.805,6.029,CST-1368DR,4379,4859,11789,01.125,551
2023-02-19T02:25:28,42.805,6.029,CST-1368DR,4379,4859,11789,01.125,551
2023-02-19T02:28:29,42.805,6.029,CST-1368DR,4379,4857,11785,01.126,551
2023-02-19T02:31:31,42.805,6.029,CST-1368DR,4379,4858,11788,01.125,551
2023-02-19T02:34:32,42.805,6.029,CST-1368DR,4379,4858,11786,01.126,551
2023-02-19T02:37:34,42.805,6.029,CST-1368DR,4379,4858,11786,01.126,551
2023-02-19T02:40:35,42.805,6.029,CST-1368DR,4379,4857,11785,01.126,551
2023-02-19T02:43:37,42.805,6.029,CST-1368DR,4379,4860,11792,01.123,551
2023-02-19T02:46:39,42.805,6.029,CST-1368DR,4379,4860,11792,01.123,551
2023-02-19T02:49:40,42.805,6.029,CST-1368DR,4379,4862,11797,01.122,551
2023-02-19T02:52:42,42.805,6.029,CST-1368DR,4379,4862,11797,01.122,551
2023-02-19T02:55:43,42.805,6.029,CST-1368DR,4379,4861,11794,01.123,551
2023-02-19T02:58:45,42.805,6.029,CST-1368DR,4379,4863,11798,01.121,551
2023-02-19T03:01:47,42.805,6.029,CST-1368DR,4379,4861,11793,01.123,551
2023-02-19T03:04:48,42.805,6.029,CST-1368DR,4379,4861,11794,01.123,551
2023-02-19T03:07:50,42.805,6.029,CST-1368DR,4379,4863,11799,01.121,551
2023-02-19T03:10:51,42.805,6.029,CST-1368DR,4378,4864,11804,01.119,551
2023-02-19T03:13:53,42.805,6.029,CST-1368DR,4379,4861,11795,01.122,551
2023-02-19T03:16:54,42.805,6.029,CST-1368DR,4379,4861,11794,01.123,551
2023-02-19T03:19:56,42.805,6.029,CST-1368DR,4379,4860,11791,01.124,551
2023-02-19T03:22:58,42.805,6.029,CST-1368DR,4379,4861,11794,01.123,551
2023-02-19T03:25:59,42.805,6.029,CST-1368DR,4379,4862,11797,01.122,551
2023-02-19T03:29:01,42.805,6.029,CST-1368DR,4379,4862,11797,01.122,551
2023-02-19T03:32:02,42.805,6.029,CST-1368DR,4379,4859,11788,01.125,551
2023-02-19T03:35:04,42.805,6.029,CST-1368DR,4379,4861,11794,01.123,551
2023-02-19T03:38:05,42.805,6.029,CST-1368DR,4379,4863,11798,01.121,551
2023-02-19T03:41:07,42.805,6.029,CST-1368DR,4379,4863,11798,01.121,551
2023-02-19T03:44:09,42.805,6.029,CST-1368DR,4379,4862,11795,01.122,551
2023-02-19T03:47:10,42.805,6.029,CST-1368DR,4379,4860,11791,01.124,551
2023-02-19T03:50:12,42.805,6.029,CST-1368DR,4379,4860,11792,01.123,551
2023-02-19T03:53:13,42.805,6.029,CST-1368DR,4379,4861,11795,01.122,551
2023-02-19T03:56:15,42.805,6.029,CST-1368DR,4379,4862,11797,01.122,551
2023-02-19T03:59:17,42.805,6.029,CST-1368DR,4379,4859,11789,01.125,551
2023-02-19T04:02:18,42.805,6.029,CST-1368DR,4379,4861,11794,01.123,551
2023-02-19T04:05:20,42.805,6.029,CST-1368DR,4379,4860,11792,01.123,551
2023-02-19T04:08:21,42.805,6.029,CST-1368DR,4379,4861,11795,01.122,551
2023-02-19T04:11:23,42.805,6.029,CST-1368DR,4379,4861,11794,01.123,551
2023-02-19T04:14:24,42.805,6.029,CST-1368DR,4379,4863,11799,01.121,551
2023-02-19T04:17:26,42.805,6.029,CST-1368DR,4379,4861,11793,01.123,551
2023-02-19T04:20:28,42.805,6.029,CST-1368DR,4379,4862,11797,01.122,551
2023-02-19T04:23:29,42.805,6.029,CST-1368DR,4379,4863,11798,01.121,551
2023-02-19T04:26:31,42.805,6.029,CST-1368DR,4379,4863,11798,01.121,551
2023-02-19T04:29:32,42.805,6.029,CST-1368DR,4378,4844,11755,01.136,551
2023-02-19T04:32:34,42.805,6.029,CST-1368DR,4378,4844,11755,01.136,551
2023-02-19T04:35:35,42.805,6.029,CST-1368DR,4378,4842,11750,01.138,551
2023-02-19T04:38:37,42.805,6.029,CST-1368DR,4378,4842,11751,01.137,551
2023-02-19T04:41:39,42.805,6.029,CST-1368DR,4378,4842,11751,01.137,551
2023-02-19T04:44:40,42.805,6.029,CST-1368DR,4378,4853,11778,01.128,551
2023-02-19T04:47:42,42.805,6.029,CST-1368DR,4379,4848,11762,01.134,551
2023-02-19T04:50:43,42.805,6.029,CST-1368DR,4378,4841,11748,01.138,551
2023-02-19T04:53:45,42.805,6.029,CST-1368DR,4379,4853,11775,01.129,551
2023-02-19T04:56:47,42.805,6.029,CST-1368DR,4378,4826,11711,01.151,551
2023-02-19T04:59:48,42.805,6.029,CST-1368DR,4378,4823,11705,01.153,551
2023-02-19T05:02:50,42.805,6.029,CST-1368DR,4378,4855,11781,01.127,551
2023-02-19T05:05:51,42.805,6.029,CST-1368DR,4379,4855,11780,01.128,551
2023-02-19T05:08:53,42.805,6.029,CST-1368DR,4379,4861,11793,01.123,551
2023-02-19T05:11:54,42.805,6.029,CST-1368DR,4378,4814,11683,01.161,551
2023-02-19T05:14:56,42.805,6.029,CST-1368DR,4379,4855,11779,01.128,551
2023-02-19T05:17:58,42.805,6.029,CST-1368DR,4379,4857,11784,01.126,551
2023-02-19T05:20:59,42.805,6.029,CST-1368DR,4379,4854,11778,01.128,551
2023-02-19T05:24:01,42.805,6.029,CST-1368DR,4379,4857,11785,01.126,551
2023-02-19T05:27:02,42.805,6.029,CST-1368DR,4379,4852,11773,01.130,551
2023-02-19T05:30:04,42.805,6.029,CST-1368DR,4379,4855,11780,01.128,551
2023-02-19T05:33:05,42.805,6.029,CST-1368DR,4379,4859,11789,01.125,551
2023-02-19T05:36:07,42.805,6.029,CST-1368DR,4379,4860,11791,01.124,551
2023-02-19T05:39:09,42.805,6.029,CST-1368DR,4379,4852,11773,01.130,551
2023-02-19T05:42:10,42.805,6.029,CST-1368DR,4379,4853,11774,01.130,551
2023-02-19T05:45:12,42.805,6.029,CST-1368DR,4378,4853,11777,01.129,551
2023-02-19T05:48:13,42.805,6.029,CST-1368DR,4379,4854,11778,01.128,551
2023-02-19T05:51:15,42.805,6.029,CST-1368DR,4379,4851,11770,01.131,551
2023-02-19T05:54:17,42.805,6.029,CST-1368DR,4379,4854,11778,01.128,551
2023-02-19T05:57:18,42.805,6.029,CST-1368DR,4379,4855,11780,01.128,551
2023-02-19T06:00:20,42.805,6.029,CST-1368DR,4379,4855,11780,01.128,551
2023-02-19T06:03:21,42.805,6.029,CST-1368DR,4379,4856,11781,01.127,551
2023-02-19T06:06:23,42.805,6.029,CST-1368DR,4379,4854,11778,01.128,551
2023-02-19T06:09:24,42.805,6.029,CST-1368DR,4379,4854,11778,01.128,551
2023-02-19T06:12:26,42.805,6.029,CST-1368DR,4378,4852,11776,01.129,551
2023-02-19T06:15:28,42.805,6.029,CST-1368DR,4378,4847,11762,01.134,551
2023-02-19T06:18:29,42.805,6.029,CST-1368DR,4378,4852,11774,01.130,551
2023-02-19T06:21:31,42.805,6.029,CST-1368DR,4379,4851,11770,01.131,551
2023-02-19T06:24:32,42.805,6.029,CST-1368DR,4379,4851,11771,01.131,551
2023-02-19T06:27:34,42.805,6.029,CST-1368DR,4379,4852,11772,01.130,551
2023-02-19T06:30:35,42.805,6.029,CST-1368DR,4378,4851,11771,01.131,551
2023-02-19T06:33:37,42.805,6.029,CST-1368DR,4378,4844,11756,01.136,551
2023-02-19T06:36:39,42.805,6.029,CST-1368DR,4378,4850,11770,01.131,551
2023-02-19T06:39:40,42.805,6.029,CST-1368DR,4378,4852,11775,01.129,551
2023-02-19T06:42:42,42.805,6.029,CST-1368DR,4378,4852,11774,01.130,551
2023-02-19T06:45:43,42.805,6.029,CST-1368DR,4378,4851,11773,01.130,551
2023-02-19T06:48:45,42.805,6.029,CST-1368DR,4378,4851,11773,01.130,551
2023-02-19T06:51:47,42.805,6.029,CST-1368DR,4378,4852,11774,01.130,551
2023-02-19T06:54:48,42.805,6.029,CST-1368DR,4378,4852,11774,01.130,551
2023-02-19T06:57:50,42.805,6.029,CST-1368DR,4378,4852,11776,01.129,551
2023-02-19T07:00:51,42.805,6.029,CST-1368DR,4378,4850,11770,01.131,551
2023-02-19T07:03:53,42.805,6.029,CST-1368DR,4378,4853,11777,01.129,551
2023-02-19T07:06:54,42.805,6.029,CST-1368DR,4378,4852,11776,01.129,551
2023-02-19T07:09:56,42.805,6.029,CST-1368DR,4378,4853,11777,01.129,551
2023-02-19T07:12:58,42.805,6.029,CST-1368DR,4378,4851,11771,01.131,551
2023-02-19T07:15:59,42.805,6.029,CST-1368DR,4378,4853,11778,01.128,551
2023-02-19T07:19:01,42.805,6.029,CST-1368DR,4378,4852,11774,01.130,551
2023-02-19T07:22:02,42.805,6.029,CST-1368DR,4378,4851,11771,01.131,551
2023-02-19T07:25:04,42.805,6.029,CST-1368DR,4378,4850,11771,01.131,551
2023-02-19T07:28:05,42.805,6.029,CST-1368DR,4378,4851,11773,01.130,551
2023-02-19T07:31:07,42.805,6.029,CST-1368DR,4378,4850,11770,01.131,551
2023-02-19T07:34:09,42.805,6.029,CST-1368DR,4378,4852,11774,01.130,551
2023-02-19T07:37:10,42.805,6.029,CST-1368DR,4378,4849,11768,01.132,551
2023-02-19T07:40:12,42.805,6.029,CST-1368DR,4378,4852,11774,01.130,551
2023-02-19T07:43:13,42.805,6.029,CST-1368DR,4378,4851,11771,01.131,551
2023-02-19T07:46:15,42.805,6.029,CST-1368DR,4378,4848,11765,01.133,551
2023-02-19T07:49:17,42.805,6.029,CST-1368DR,4378,4852,11774,01.130,551
2023-02-19T07:52:18,42.805,6.029,CST-1368DR,4378,4851,11771,01.131,551
2023-02-19T07:55:20,42.805,6.029,CST-1368DR,4378,4850,11770,01.131,551
2023-02-19T07:58:21,42.805,6.029,CST-1368DR,4378,4847,11763,01.133,551
2023-02-19T08:01:23,42.805,6.029,CST-1368DR,4378,4850,11770,01.131,551
2023-02-19T08:04:24,42.805,6.029,CST-1368DR,4378,4852,11775,01.129,551
2023-02-19T08:07:26,42.805,6.029,CST-1368DR,4378,4852,11774,01.130,551
2023-02-19T08:10:28,42.805,6.029,CST-1368DR,4378,4863,11800,01.121,551
2023-02-19T08:13:29,42.805,6.029,CST-1368DR,4378,4858,11789,01.125,551
2023-02-19T08:16:31,42.805,6.029,CST-1368DR,4378,4857,11788,01.125,551
2023-02-19T08:19:32,42.805,6.029,CST-1368DR,4378,4857,11788,01.125,551
2023-02-19T08:22:34,42.805,6.029,CST-1368DR,4378,4861,11797,01.122,551
2023-02-19T08:25:35,42.805,6.029,CST-1368DR,4378,4853,11777,01.129,551
2023-02-19T08:28:37,42.805,6.029,CST-1368DR,4378,4857,11786,01.126,551
2023-02-19T08:31:39,42.805,6.029,CST-1368DR,4378,4858,11789,01.125,551
2023-02-19T08:34:40,42.805,6.029,CST-1368DR,4378,4863,11800,01.121,551
2023-02-19T08:37:42,42.805,6.029,CST-1368DR,4378,4864,11803,01.120,551
2023-02-19T08:40:43,42.805,6.029,CST-1368DR,4378,4865,11805,01.119,551
2023-02-19T08:43:45,42.805,6.029,CST-1368DR,4378,4850,11770,01.131,551
2023-02-19T08:46:47,42.805,6.029,CST-1368DR,4378,4862,11799,01.121,551
2023-02-19T08:49:48,42.805,6.029,CST-1368DR,4378,4862,11799,01.121,551
2023-02-19T08:52:50,42.805,6.029,CST-1368DR,4378,4861,11797,01.122,551
2023-02-19T08:55:51,42.805,6.029,CST-1368DR,4378,4862,11799,01.121,551
2023-02-19T08:58:53,42.805,6.029,CST-1368DR,4378,4861,11796,01.122,551
2023-02-19T09:01:54,42.805,6.029,CST-1368DR,4378,4862,11798,01.121,551
2023-02-19T09:04:56,42.805,6.029,CST-1368DR,4378,4861,11797,01.122,551
2023-02-19T09:07:58,42.805,6.029,CST-1368DR,4378,4863,11802,01.120,551
2023-02-19T09:10:59,42.805,6.029,CST-1368DR,4378,4862,11799,01.121,551
2023-02-19T09:14:01,42.805,6.029,CST-1368DR,4378,4857,11786,01.126,551
2023-02-19T09:17:02,42.805,6.029,CST-1368DR,4378,4847,11763,01.133,551
2023-02-19T09:20:04,42.805,6.029,CST-1368DR,4378,4854,11780,01.128,551
2023-02-19T09:23:05,42.805,6.029,CST-1368DR,4378,4863,11802,01.120,551
2023-02-19T09:26:07,42.805,6.029,CST-1368DR,4378,4861,11796,01.122,551
2023-02-19T09:29:09,42.805,6.029,CST-1368DR,4378,4863,11800,01.121,551
2023-02-19T09:32:10,42.805,6.029,CST-1368DR,4378,4865,11806,01.119,551
2023-02-19T09:35:12,42.805,6.029,CST-1368DR,4378,4863,11800,01.121,551
2023-02-19T09:38:13,42.805,6.029,CST-1368DR,4378,4861,11796,01.122,551
2023-02-19T09:41:15,42.805,6.029,CST-1368DR,4378,4854,11780,01.128,551
2023-02-19T09:44:17,42.805,6.029,CST-1368DR,4378,4857,11787,01.125,551
2023-02-19T09:47:18,42.805,6.029,CST-1368DR,4378,4860,11794,01.123,551
2023-02-19T09:50:20,42.805,6.029,CST-1368DR,4378,4860,11794,01.123,551
2023-02-19T09:53:21,42.805,6.029,CST-1368DR,4378,4851,11772,01.130,551
2023-02-19T09:56:23,42.805,6.029,CST-1368DR,4378,4858,11790,01.124,551
2023-02-19T09:59:24,42.805,6.029,CST-1368DR,4378,4859,11791,01.124,551
2023-02-19T10:02:26,42.805,6.029,CST-1368DR,4378,4855,11782,01.127,551
2023-02-19T10:05:28,42.805,6.029,CST-1368DR,4378,4858,11790,01.124,551
2023-02-19T10:08:29,42.805,6.029,CST-1368DR,4378,4857,11788,01.125,551
2023-02-19T10:11:31,42.805,6.029,CST-1368DR,4378,4859,11791,01.124,551
2023-02-19T10:14:32,42.805,6.029,CST-1368DR,4378,4858,11790,01.124,551
2023-02-19T10:17:34,42.805,6.029,CST-1368DR,4378,4860,11793,01.123,551
2023-02-19T10:20:35,42.805,6.029,CST-1368DR,4378,4862,11798,01.121,551
2023-02-19T10:23:37,42.805,6.029,CST-1368DR,4378,4860,11794,01.123,551
2023-02-19T10:26:39,42.805,6.029,CST-1368DR,4378,4861,11796,01.122,551
2023-02-19T10:29:40,42.805,6.029,CST-1368DR,4378,4857,11787,01.125,551
2023-02-19T10:32:42,42.805,6.029,CST-1368DR,4378,4858,11788,01.125,551
2023-02-19T10:35:43,42.805,6.029,CST-1368DR,4378,4858,11790,01.124,551
2023-02-19T10:38:45,42.805,6.029,CST-1368DR,4378,4860,11795,01.122,551
2023-02-19T10:41:47,42.805,6.029,CST-1368DR,4378,4857,11787,01.125,551
2023-02-19T10:44:48,42.805,6.029,CST-1368DR,4378,4854,11780,01.128,551
2023-02-19T10:47:50,42.805,6.029,CST-1368DR,4378,4859,11791,01.124,551
2023-02-19T10:50:51,42.805,6.029,CST-1368DR,4378,4854,11780,01.128,551
2023-02-19T10:53:53,42.805,6.029,CST-1368DR,4378,4854,11779,01.128,551
2023-02-19T10:56:54,42.805,6.029,CST-1368DR,4378,4853,11778,01.128,551
2023-02-19T10:59:56,42.805,6.029,CST-1368DR,4378,4853,11777,01.129,551
2023-02-19T11:02:58,42.805,6.029,CST-1368DR,4378,4853,11778,01.128,551
2023-02-19T11:05:59,42.805,6.029,CST-1368DR,4378,4854,11780,01.128,551
2023-02-19T11:09:01,42.805,6.029,CST-1368DR,4378,4852,11774,01.130,551
2023-02-19T11:12:02,42.805,6.029,CST-1368DR,4378,4852,11774,01.130,551
2023-02-19T11:15:04,42.805,6.029,CST-1368DR,4378,4853,11777,01.129,551
2023-02-19T11:18:05,42.805,6.029,CST-1368DR,4378,4853,11778,01.128,551
2023-02-19T11:21:07,42.805,6.029,CST-1368DR,4378,4854,11779,01.128,551
2023-02-19T11:24:09,42.805,6.029,CST-1368DR,4378,4855,11782,01.127,551
2023-02-19T11:27:10,42.805,6.029,CST-1368DR,4378,4853,11777,01.129,551
2023-02-19T11:30:12,42.805,6.029,CST-1368DR,4378,4853,11777,01.129,551
2023-02-19T11:33:13,42.805,6.029,CST-1368DR,4378,4856,11785,01.126,551
2023-02-19T11:36:15,42.805,6.029,CST-1368DR,4378,4858,11790,01.124,551
2023-02-19T11:39:17,42.805,6.029,CST-1368DR,4378,4858,11790,01.124,551
2023-02-19T11:42:18,42.805,6.029,CST-1368DR,4378,4858,11790,01.124,551
2023-02-19T11:45:20,42.805,6.029,CST-1368DR,4378,4860,11793,01.123,551
2023-02-19T11:48:21,42.805,6.029,CST-1368DR,4378,4858,11790,01.124,551
2023-02-19T11:51:23,42.805,6.029,CST-1368DR,4378,4860,11794,01.123,551
2023-02-19T11:54:24,42.805,6.029,CST-1368DR,4378,4859,11791,01.124,551
2023-02-19T11:57:26,42.805,6.029,CST-1368DR,4378,4859,11791,01.124,551
2023-02-19T12:00:28,42.805,6.029,CST-1368DR,4378,4859,11792,01.123,551
2023-02-19T12:03:29,42.805,6.029,CST-1368DR,4378,4860,11794,01.123,551
2023-02-19T12:06:31,42.805,6.029,CST-1368DR,4378,4862,11798,01.121,551
2023-02-19T12:09:32,42.805,6.029,CST-1368DR,4378,4862,11798,01.121,551
2023-02-19T12:12:34,42.805,6.029,CST-1368DR,4378,4861,11797,01.122,551
2023-02-19T12:15:35,42.805,6.029,CST-1368DR,4378,4862,11798,01.121,551
2023-02-19T12:18:37,42.805,6.029,CST-1368DR,4378,4863,11800,01.121,551
2023-02-19T12:21:39,42.805,6.029,CST-1368DR,4378,4859,11791,01.124,551
2023-02-19T12:24:40,42.805,6.029,CST-1368DR,4378,4860,11794,01.123,551
2023-02-19T12:27:42,42.805,6.029,CST-1368DR,4378,4860,11795,01.122,551
2023-02-19T12:30:43,42.805,6.029,CST-1368DR,4378,4855,11782,01.127,551
2023-02-19T12:33:45,42.805,6.029,CST-1368DR,4378,4856,11783,01.127,551
2023-02-19T12:36:47,42.805,6.029,CST-1368DR,4378,4857,11788,01.125,551
2023-02-19T12:39:48,42.805,6.029,CST-1368DR,4378,4860,11795,01.122,551
2023-02-19T12:42:50,42.805,6.029,CST-1368DR,4378,4858,11790,01.124,551
2023-02-19T12:45:51,42.805,6.029,CST-1368DR,4378,4860,11794,01.123,551
2023-02-19T12:48:53,42.805,6.029,CST-1368DR,4378,4858,11790,01.124,551
2023-02-19T12:51:54,42.805,6.029,CST-1368DR,4378,4862,11800,01.121,551
2023-02-19T12:54:56,42.805,6.029,CST-1368DR,4378,4858,11790,01.124,551
2023-02-19T12:57:58,42.805,6.029,CST-1368DR,4378,4862,11799,01.121,551
2023-02-19T13:00:59,42.805,6.029,CST-1368DR,4378,4857,11787,01.125,551
2023-02-19T13:04:01,42.805,6.029,CST-1368DR,4378,4860,11793,01.123,551
2023-02-19T13:07:02,42.805,6.029,CST-1368DR,4378,4859,11792,01.123,551
2023-02-19T13:10:04,42.805,6.029,CST-1368DR,4378,4861,11797,01.122,551
2023-02-19T13:13:05,42.805,6.029,CST-1368DR,4378,4860,11794,01.123,551
2023-02-19T13:16:07,42.805,6.029,CST-1368DR,4378,4858,11790,01.124,551
2023-02-19T13:19:09,42.805,6.029,CST-1368DR,4378,4862,11798,01.121,551
2023-02-19T13:22:10,42.805,6.029,CST-1368DR,4378,4859,11792,01.123,551
2023-02-19T13:25:12,42.805,6.029,CST-1368DR,4378,4861,11796,01.122,551
2023-02-19T13:28:13,42.805,6.029,CST-1368DR,4378,4862,11798,01.121,551
2023-02-19T13:31:15,42.805,6.029,CST-1368DR,4378,4871,11820,01.114,551
2023-02-19T13:34:17,42.805,6.029,CST-1368DR,4378,4859,11792,01.123,551
2023-02-19T13:37:18,42.805,6.029,CST-1368DR,4378,4860,11794,01.123,551
2023-02-19T13:40:20,42.805,6.029,CST-1368DR,4378,4856,11783,01.127,551
2023-02-19T13:43:21,42.805,6.029,CST-1368DR,4378,4858,11789,01.125,551
2023-02-19T13:46:23,42.805,6.029,CST-1368DR,4378,4858,11790,01.124,551
2023-02-19T13:49:24,42.805,6.029,CST-1368DR,4378,4859,11792,01.123,551
2023-02-19T13:52:26,42.805,6.029,CST-1368DR,4378,4861,11796,01.122,551
2023-02-19T13:55:28,42.805,6.029,CST-1368DR,4378,4861,11796,01.122,551
2023-02-19T13:58:29,42.805,6.029,CST-1368DR,4378,4860,11793,01.123,551
2023-02-19T14:01:31,42.805,6.029,CST-1368DR,4378,4859,11791,01.124,551
2023-02-19T14:04:32,42.805,6.029,CST-1368DR,4378,4858,11790,01.124,551
2023-02-19T14:07:34,42.805,6.029,CST-1368DR,4378,4858,11790,01.124,551
2023-02-19T14:10:35,42.805,6.029,CST-1368DR,4378,4860,11794,01.123,551
2023-02-19T14:13:37,42.805,6.029,CST-1368DR,4378,4861,11796,01.122,551
2023-02-19T14:16:39,42.805,6.029,CST-1368DR,4378,4859,11791,01.124,551
2023-02-19T14:19:40,42.805,6.029,CST-1368DR,4378,4860,11794,01.123,551
2023-02-19T14:22:42,42.805,6.029,CST-1368DR,4378,4856,11785,01.126,551
2023-02-19T14:25:43,42.805,6.029,CST-1368DR,4378,4863,11800,01.121,551
2023-02-19T14:28:45,42.805,6.029,CST-1368DR,4378,4860,11794,01.123,551
2023-02-19T14:31:47,42.805,6.029,CST-1368DR,4378,4861,11796,01.122,551
2023-02-19T14:34:48,42.805,6.029,CST-1368DR,4378,4858,11790,01.124,551
2023-02-19T14:37:50,42.805,6.029,CST-1368DR,4378,4861,11797,01.122,551
2023-02-19T14:40:51,42.805,6.029,CST-1368DR,4378,4859,11792,01.123,551
2023-02-19T14:43:53,42.805,6.029,CST-1368DR,4378,4860,11794,01.123,551
2023-02-19T14:46:54,42.805,6.029,CST-1368DR,4378,4861,11796,01.122,551
2023-02-19T14:49:56,42.805,6.029,CST-1368DR,4378,4860,11794,01.123,551
2023-02-19T14:52:58,42.805,6.029,CST-1368DR,4378,4860,11794,01.123,551
2023-02-19T14:55:59,42.805,6.029,CST-1368DR,4378,4860,11793,01.123,551
2023-02-19T14:59:01,42.805,6.029,CST-1368DR,4378,4860,11795,01.122,551
2023-02-19T15:02:02,42.805,6.029,CST-1368DR,4378,4860,11795,01.122,551
2023-02-19T15:05:04,42.805,6.029,CST-1368DR,4378,4859,11791,01.124,551
2023-02-19T15:08:05,42.805,6.029,CST-1368DR,4378,4858,11789,01.125,551
2023-02-19T15:11:07,42.805,6.029,CST-1368DR,4378,4858,11790,01.124,551
2023-02-19T15:14:09,42.805,6.029,CST-1368DR,4378,4857,11788,01.125,551
2023-02-19T15:17:10,42.805,6.029,CST-1368DR,4378,4858,11790,01.124,551
2023-02-19T15:20:12,42.805,6.029,CST-1368DR,4378,4861,11797,01.122,551
2023-02-19T15:23:13,42.805,6.029,CST-1368DR,4378,4860,11795,01.122,551
2023-02-19T15:26:15,42.805,6.029,CST-1368DR,4378,4861,11796,01.122,551
2023-02-19T15:29:17,42.805,6.029,CST-1368DR,4378,4861,11796,01.122,551
2023-02-19T15:32:18,42.805,6.029,CST-1368DR,4378,4860,11794,01.123,551
2023-02-19T15:35:20,42.805,6.029,CST-1368DR,4378,4860,11794,01.123,551
2023-02-19T15:38:21,42.805,6.029,CST-1368DR,4378,4861,11797,01.122,551
2023-02-19T15:41:23,42.805,6.029,CST-1368DR,4378,4859,11792,01.123,551
2023-02-19T15:44:24,42.805,6.029,CST-1368DR,4378,4860,11795,01.122,551
2023-02-19T15:47:26,42.805,6.029,CST-1368DR,4378,4863,11802,01.120,551
2023-02-19T15:50:28,42.805,6.029,CST-1368DR,4378,4858,11790,01.124,551
2023-02-19T15:53:29,42.805,6.029,CST-1368DR,4378,4860,11793,01.123,551
2023-02-19T15:56:31,42.805,6.029,CST-1368DR,4378,4862,11799,01.121,551
2023-02-19T15:59:32,42.805,6.029,CST-1368DR,4378,4862,11798,01.121,551
2023-02-19T16:02:34,42.805,6.029,CST-1368DR,4378,4861,11797,01.122,551
2023-02-19T16:05:35,42.805,6.029,CST-1368DR,4378,4862,11798,01.121,551
2023-02-19T16:08:37,42.805,6.029,CST-1368DR,4378,4862,11800,01.121,551
2023-02-19T16:11:39,42.805,6.029,CST-1368DR,4378,4858,11789,01.125,551
2023-02-19T16:14:40,42.805,6.029,CST-1368DR,4378,4861,11796,01.122,551
2023-02-19T16:17:42,42.805,6.029,CST-1368DR,4378,4859,11791,01.124,551
2023-02-19T16:20:43,42.805,6.029,CST-1368DR,4378,4858,11790,01.124,551
2023-02-19T16:23:45,42.805,6.029,CST-1368DR,4378,4862,11799,01.121,551
2023-02-19T16:26:46,42.805,6.029,CST-1368DR,4378,4859,11791,01.124,551
2023-02-19T16:29:48,42.805,6.029,CST-1368DR,4378,4859,11792,01.123,551
2023-02-19T16:32:50,42.805,6.029,CST-1368DR,4378,4858,11790,01.124,551
2023-02-19T16:35:51,42.805,6.029,CST-1368DR,4378,4858,11789,01.125,551